www.pogodaiklimat.ru

Погода и климат >> Архив погоды >> Китай >> Синьцзян-Уйгурский автономный район >> Цзяньфан


ПОГОДА в Цзяньфане

  • Прогноз погоды в Цзяньфане
  • Монитор погоды в Цзяньфане

АРХИВ ПОГОДЫ в Цзяньфане

Время (UTC), дата Ветер
(напр.,м/с)
 
Видим.   Явления Облачность Т
(С)
Тd
(С)
f
(%)
Тe
(С)
Тes
(С)
Комфортность P
(гПа)
Po
(гПа)
Тmin
(С)
Tmax
(С)
R
(мм)
R24
(мм)
S
(см)
21 10.09 С 27
{38}
30 км ?/? +15.2 +4.3 48 +11 +11 1009.4 919.0
00 11.09 С 22
{36}
30 км 9/9 1500 м
[]
+14.2 +4.5 52 +10 +10 1014.0 922.8
03 11.09 С 20
{36}
30 км 9/9 1500 м
[]
+14.9 +3.7 47 +11 +11 1016.9 925.7
06 11.09 С 20
{32}
30 км 9/9 1500 м
[]
+15.6 +3.7 45 +13 +13 1017.3 926.3 +14.1
09 11.09 С 16
{29}
30 км 9/9
[]
+16.8 +3.8 42 +15 +15 1017.6 926.9
12 11.09 С 16
{29}
30 км 9/9
[]
+17.2 +1.6 35 +15 +15 1019.1 928.4
18 11.09 С 14
{22}
30 км ?/? +15.1 +3.9 47 +12 +12 1022.5 939.1 +18.0
21 11.09 СЗ 5
{21}
30 км ?/? +13.8 +3.8 51 +12 +12 1023.2 931.1
00 12.09 С 6
{17}
30 км ясно +12.3 +3.5 55 +10 +10 1025.0 932.3
03 12.09 С 8 29 км ясно +18.4 +0.5 30 +18 +19 1024.5 933.7
06 12.09 С 6 30 км 1/1 1500 м
[]
+22.2 -4.8 16 +21 +25 комфорт 1021.6 932.1 +12.1
09 12.09 СЗ 11
{18}
30 км 3/3 1500 м
[]
+23.0 -4.2 16 +21 +21 комфорт 1019.6 930.5
12 12.09 С 9
{18}
30 км 1/1 1500 м
[]
+20.2 -2.2 22 +19 +19 1020.7 930.7
18 12.09 С 10 30 км ?/? +15.3 +2.8 43 +13 +13 1021.4 1021.0 +23.1
21 12.09 С 8 30 км н/о +14.5 +1.8 42 +12 +12 1020.6 928.9
00 13.09 С 6 30 км ясно +14.0 -0.1 38 +12 +12 1021.5 929.6
03 13.09 С 5 30 км ясно +20.0 -2.3 22 +20 +23 1020.7 930.7
06 13.09 Ю 4 30 км ясно +23.1 -2.5 18 +22 +30 комфорт 1018.2 929.3 +13.8
09 13.09 Ю 3 30 км 3/3
[]
+25.1 -2.5 16 +23 +27 комфорт 1015.2 927.1
12 13.09 ЮЗ 4 30 км 6/6
[]
+24.1 -3.3 16 +22 +22 комфорт 1014.6 926.3
18 13.09 С 6 30 км ?/? +17.9 -3.5 23 +17 +17 1016.3 926.0 +25.6
21 13.09 С 10 30 км н/о +17.9 -2.9 24 +17 +17 1015.9 925.7
00 14.09 С 9 30 км 9/9 1500 м
[]
+16.8 -1.8 28 +15 +15 1017.2 926.5
03 14.09 С 12 30 км ясно +21.3 -1.9 21 +21 +21 комфорт 1017.7 928.3
06 14.09 С 5
{18}
30 км ясно +25.3 -3.2 15 +23 +30 комфорт 1015.7 927.6 +16.6
09 14.09 С 5 30 км ясно +26.7 -5.0 12 +24 +27 комфорт 1012.8 925.4
12 14.09 С 8 30 км ясно +24.9 -6.4 12 +22 +22 комфорт 1013.5 925.5
18 14.09 С 7 30 км ?/? +18.8 -6.0 18 +18 +18 1014.6 924.8 +27.1
21 14.09 С 5 30 км н/о +16.6 -4.6 23 +16 +16 1014.6 924.1
00 15.09 С 8 30 км ясно +16.6 -4.0 24 +15 +15 1016.2 925.6
03 15.09 СВ 2 30 км ясно +23.3 -5.7 14 +21 +28 комфорт 1016.4 927.7
06 15.09 Ю 4 30 км ясно +27.2 -4.6 12 +24 +33 комфорт 1013.6 926.3 +16.4
09 15.09 З 3 30 км ясно +28.6 -4.7 11 +25 +30 комфорт 1011.0 924.3
12 15.09 ЮЗ 2 30 км ясно +27.0 -4.8 12 +24 +24 комфорт 1011.0 923.8
18 15.09 С 7 30 км ?/? +20.2 -6.4 16 +19 +19 1011.7 922.5 +28.8
21 15.09 С 8 30 км н/о +19.0 -5.8 18 +18 +18 1011.7 922.2
00 16.09 С 10 30 км ясно +18.1 -5.2 20 +17 +17 1013.3 923.4
03 16.09 С 10 30 км ясно +24.1 -5.0 14 +22 +22 комфорт 1013.9 925.7
06 16.09 СЗ 10 30 км ясно +28.2 -5.0 11 +25 +26 комфорт 1011.4 924.5 +17.6
09 16.09 СЗ 8 30 км ясно +29.4 -6.7 9 +26 +27 жарко 1009.3 922.9
12 16.09 СЗ 8 30 км ясно +27.0 -5.9 11 +24 +24 комфорт 1009.9 922.8
18 16.09 С 10 30 км ?/? +21.7 -7.9 13 +20 +20 1012.2 923.4 +29.5
21 16.09 С 8 30 км н/о +21.1 -7.4 14 +20 +20 1013.0 924.0
00 17.09 С 12
{19}
30 км 1/1
[]
+18.8 -0.1 28 +18 +18 1015.9 925.9
03 17.09 С 16
{20}
29 км 4/4
[]
+22.0 +1.6 26 +22 +22 комфорт 1016.9 927.8
06 17.09 С 15
{21}
30 км 9/9
[]
+25.4 +0.8 20 +24 +24 комфорт 1015.2 927.2 +18.6
09 17.09 С 19
{21}
30 км 9/9
[]
+26.4 +1.7 20 +25 +25 комфорт 1013.9 926.3
12 17.09 С 20
{27}
30 км 9/9
[]
+21.8 +2.5 28 +22 +22 комфорт 1016.7 927.6
18 17.09 С 15
{27}
30 км ?/? +20.3 +4.4 35 +20 +20 1019.2 929.4 +27.3

 

Местоположение метеостанции Цзяньфан (Синьцзян-Уйгурский автономный район, Китай): широта 43.22 долгота 91.73 высота над уровнем моря 792 м.

В архиве по умолчанию представлена погода в Цзяньфане за последнюю неделю. Архивные данные за месяц целиком и за предыдущие месяцы, начиная с января 2011 года, Вы можете получить, выбрав интересующий диапазон дат из раскрывающегося списка и нажав кнопку "Ввод!".


*Определитесь, кто Вы:
робот инопланетянин человек

Внимание! Время в таблицах - всемирное. Для получения местного времени необходимо прибавить поправку, которая равна 8 ч.

Смотрите также архив погоды в соседних городах и на ближайших метеорологических станциях:

Погода в Хами (Синьцзян-Уйгурский автономный район, Китай) (152 км)
Погода в Цитае (Синьцзян-Уйгурский автономный район, Китай) (195 км)
Погода в Турфане (Синьцзян-Уйгурский автономный район, Китай) (208 км)
Погода в Бейта Шан (Синьцзян-Уйгурский автономный район, Китай) (258 км)
Погода в Наомаоху (Синьцзян-Уйгурский автономный район, Китай) (278 км)
Погода в Байтаге (Монголия) (323 км)
Погода в Урумчи (Синьцзян-Уйгурский автономный район, Китай) (335 км)
Погода в Тонхиле (Монголия) (385 км)
Погода в Жаргаланте (Монголия) (415 км)
Погода в Дуньхуане (Ганьсу, Китай) (420 км)

Пояснения к столбцам:

Ветер - указаны скорость ветра в м/с - средняя за 10 мин, порывы в срок и между сроками (в фигурных скобках) и направление, откуда дует ветер: С - северный, СВ - северо-восточный, В - восточный, ЮВ - юго-восточный, Ю - южный, ЮЗ - юго-западный, З - западный, СЗ - северо-западный.
Видимость - горизонтальная дальность видимости в метрах или километрах. При видимости от 1 до 10 км при отсутствии осадков обычно наблюдается дымка, при ухудшении видимости до 1 км и менее - туман. В сухую погоду видимость может ухудшаться дымом, пылью или мглою.
Явления - указаны атмосферные явления, наблюдавшиеся в срок или в последний час перед сроком; фигурными скобками обозначены явления, наблюдавшиеся между сроками (за 1-3 часа до срока); квадратными скобками обозначены град или гололедные отложения с указанием их диаметра в мм.
Облачность - указаны через наклонную черту общая и нижняя облачность в баллах и высота нижней границы облаков в метрах; квадратными скобками обозначены формы облаков: Ci - перистые, Cs - перисто-слоистые, Cc - перисто-кучевые, Ac - высококучевые, As - высокослоистые, Sc - слоисто-кучевые, Ns - слоисто-дождевые, Cu - кучевые, Cb - кучево-дождевые. Подробнее классификацию облаков см. в Атласе облаков (PDF).
T - Температура воздуха - температура, измеренная на высоте 2 м над землей.
Td - Температура точки росы - температура, при понижении до которой содержащийся в воздухе водяной пар достигнет насыщения.
f - Относительная влажность воздуха - влажноcть воздуха, измеренная на высоте 2 м над землей.
Te - Эффективная температура - температура, которую ощущает одетый по сезону человек в тени. Характеристика душности погоды. При расчете учитывается влияние влажности воздуха и скорости ветра на теплоощущения человека.
Tes - Эффективная температура на солнце - температура, которую ощущает человек, с поправкой на солнечный нагрев. Характеристика знойности погоды. Зависит от высоты солнца над горизонтом, облачности и скорости ветра. Ночью, в пасмурную погоду, а также при ветре 12 м/с и более поправка равна нулю.
P - Атмосферное давление - приведенное к уровню моря атмосферное давление.
Po - Атмосферное давление - измеренное на уровне метеостанции атмосферное давление.
Tmin - Минимальная температура - минимум температуры воздуха на высоте 2 м над землей.
Tmax - Максимальная температура - максимум температуры воздуха на высоте 2 м над землей.
R - Количество осадков - Количество выпавших осадков за период времени, мм. При наведении курсора мыши на число - период времени, за который выпало указанное количество осадков.
R24 - Количество осадков - Количество выпавших осадков за 24 часа, мм.
S - Снежный покров - Высота снежного покрова, см. При наведении курсора мыши на число - состояние снежного покрова и степень покрытия местности в баллах.